TimeEST,TemperatureF,Dew PointF,Humidity,Sea Level PressureIn,VisibilityMPH,Wind Direction,Wind SpeedMPH,Gust SpeedMPH,PrecipitationIn,Events,Conditions,WindDirDegrees,DateUTC
12:55 AM,28.9,25.7,88,30.41,8.0,East,4.6,-,N/A,,Clear,80,2012-11-15 05:55:00
1:55 AM,26.1,23.7,91,30.39,8.0,East,5.8,-,N/A,,Clear,80,2012-11-15 06:55:00
2:26 AM,26.6,24.8,93,30.39,4.0,ENE,3.5,-,N/A,,Clear,60,2012-11-15 07:26:00
2:37 AM,26.6,24.8,93,30.39,5.0,ENE,4.6,-,N/A,,Clear,60,2012-11-15 07:37:00
2:55 AM,26.4,24.4,92,30.39,8.0,NE,4.6,-,N/A,,Clear,50,2012-11-15 07:55:00
3:55 AM,23.9,23.0,96,30.39,8.0,NE,3.5,-,N/A,,Clear,40,2012-11-15 08:55:00
4:10 AM,23.0,23.0,100,30.38,4.0,ENE,3.5,-,N/A,,Clear,60,2012-11-15 09:10:00
4:22 AM,23.0,23.0,100,30.38,5.0,ENE,4.6,-,N/A,,Clear,70,2012-11-15 09:22:00
4:28 AM,23.0,23.0,100,30.38,4.0,ENE,4.6,-,N/A,,Clear,60,2012-11-15 09:28:00
4:32 AM,23.0,23.0,100,30.38,2.5,ENE,4.6,-,N/A,,Clear,60,2012-11-15 09:32:00
4:34 AM,23.0,23.0,100,30.38,2.0,ENE,4.6,-,N/A,,Clear,60,2012-11-15 09:34:00
4:39 AM,23.0,23.0,100,30.38,1.8,ENE,4.6,-,N/A,,Clear,60,2012-11-15 09:39:00
4:42 AM,24.8,23.0,93,30.38,2.0,ENE,4.6,-,N/A,,Clear,60,2012-11-15 09:42:00
4:46 AM,23.0,23.0,100,30.38,2.5,ENE,5.8,-,N/A,,Clear,60,2012-11-15 09:46:00
4:49 AM,23.0,23.0,100,30.38,3.0,ENE,5.8,-,N/A,,Clear,60,2012-11-15 09:49:00
4:55 AM,22.3,21.4,96,30.38,5.0,ENE,5.8,-,N/A,,Clear,70,2012-11-15 09:55:00
5:05 AM,23.0,21.2,93,30.38,4.0,ENE,4.6,-,N/A,,Clear,70,2012-11-15 10:05:00
5:07 AM,23.0,21.2,93,30.38,2.5,ENE,4.6,-,N/A,,Clear,70,2012-11-15 10:07:00
5:14 AM,23.0,23.0,100,30.38,3.0,ENE,3.5,-,N/A,,Clear,70,2012-11-15 10:14:00
5:16 AM,23.0,23.0,100,30.38,5.0,ENE,3.5,-,N/A,,Clear,70,2012-11-15 10:16:00
5:24 AM,24.8,23.0,93,30.38,2.5,ENE,3.5,-,N/A,,Clear,70,2012-11-15 10:24:00
5:26 AM,24.8,23.0,93,30.38,2.0,ENE,3.5,-,N/A,,Clear,70,2012-11-15 10:26:00
5:34 AM,24.8,23.0,93,30.38,3.0,Calm,Calm,-,N/A,,Clear,0,2012-11-15 10:34:00
5:36 AM,24.8,23.0,93,30.38,5.0,East,3.5,-,N/A,,Clear,80,2012-11-15 10:36:00
5:45 AM,24.8,23.0,93,30.38,4.0,Calm,Calm,-,N/A,,Clear,0,2012-11-15 10:45:00
5:52 AM,24.8,24.8,100,30.38,5.0,ENE,3.5,-,N/A,,Clear,70,2012-11-15 10:52:00
5:55 AM,25.0,23.9,96,30.38,6.0,ENE,3.5,-,N/A,,Clear,70,2012-11-15 10:55:00
6:12 AM,23.0,21.2,93,30.39,1.0,ENE,3.5,-,N/A,,Clear,60,2012-11-15 11:12:00
6:21 AM,23.0,21.2,93,30.39,2.5,ENE,3.5,-,N/A,,Clear,60,2012-11-15 11:21:00
6:25 AM,23.0,21.2,93,30.39,1.5,ENE,3.5,-,N/A,,Clear,60,2012-11-15 11:25:00
6:27 AM,23.0,21.2,93,30.38,1.2,ENE,3.5,-,N/A,,Clear,60,2012-11-15 11:27:00
6:29 AM,23.0,21.2,93,30.34,7.0,ENE,3.5,-,N/A,,Clear,60,2012-11-15 11:29:00
6:55 AM,23.7,22.6,96,30.39,7.0,East,3.5,-,N/A,,Clear,80,2012-11-15 11:55:00
7:22 AM,24.8,23.0,93,30.36,3.0,East,3.5,-,N/A,,Scattered Clouds,100,2012-11-15 12:22:00
7:55 AM,24.4,23.7,97,30.41,3.0,Calm,Calm,-,N/A,,Scattered Clouds,0,2012-11-15 12:55:00
8:55 AM,27.5,26.1,94,30.43,3.0,ESE,4.6,-,N/A,,Mostly Cloudy,120,2012-11-15 13:55:00
9:55 AM,31.3,28.9,91,30.43,5.0,ESE,5.8,-,N/A,,Scattered Clouds,120,2012-11-15 14:55:00
10:31 AM,33.8,30.2,87,30.38,5.0,ESE,6.9,-,N/A,,Scattered Clouds,120,2012-11-15 15:31:00
10:55 AM,35.4,30.4,82,30.43,6.0,ESE,4.6,-,N/A,,Scattered Clouds,120,2012-11-15 15:55:00
11:55 AM,38.3,30.7,74,30.41,10.0,SE,4.6,-,N/A,,Clear,130,2012-11-15 16:55:00
12:55 PM,41.0,30.2,65,30.39,10.0,Calm,Calm,-,N/A,,Clear,0,2012-11-15 17:55:00
1:55 PM,42.4,30.0,61,30.38,10.0,Calm,Calm,-,N/A,,Clear,0,2012-11-15 18:55:00
2:55 PM,43.5,30.6,60,30.35,10.0,Calm,Calm,-,N/A,,Overcast,0,2012-11-15 19:55:00
3:55 PM,44.1,30.6,59,30.36,10.0,Calm,Calm,-,N/A,,Clear,0,2012-11-15 20:55:00
4:55 PM,41.9,31.5,66,30.37,10.0,Calm,Calm,-,N/A,,Partly Cloudy,0,2012-11-15 21:55:00
5:55 PM,38.3,31.3,76,30.36,10.0,Calm,Calm,-,N/A,,Clear,0,2012-11-15 22:55:00
6:55 PM,36.0,30.9,82,30.38,6.0,Calm,Calm,-,N/A,,Haze,0,2012-11-15 23:55:00
7:55 PM,33.3,29.5,86,30.39,8.0,Calm,Calm,-,N/A,,Clear,0,2012-11-16 00:55:00
8:55 PM,32.5,29.1,87,30.39,7.0,Calm,Calm,-,N/A,,Clear,0,2012-11-16 01:55:00
9:55 PM,30.9,28.9,92,30.40,8.0,Calm,Calm,-,N/A,,Clear,0,2012-11-16 02:55:00
10:55 PM,29.7,28.0,94,30.40,6.0,Calm,Calm,-,N/A,,Clear,0,2012-11-16 03:55:00
11:55 PM,28.6,27.1,94,30.40,6.0,Calm,Calm,-,N/A,,Clear,0,2012-11-16 04:55:00